Find Starlink 35060

NORAD ID: 65693 Int'l Des: 2025-212 Owner: SPXS Country: US Constellation: starlink operational
LEOCIRCULAR

Current View

Loading 3D Globe...

About Starlink 35060

Description loading...

Upcoming Passes

Passes for default location (London). Set your location on the main map for personalized predictions.

Altitude History

Loading altitude history...

Two-Line Element Set

1 65693U 25212T 26150.43983992 .00031169 00000-0 10596-2 0 9995
2 65693 53.1594 315.6941 0001320 83.9512 276.1639 15.30214774 39900
Epoch: May 30, 2026 • Age: 11 hours

Current Status

Altitude 480.8 km
Velocity 7.63 km/s
Sub-Earth Point 53.29°N, 171.33°W
Launch Date Sep 21, 2025
Age 0.6 years
Type internet

Technical Details

Classification Payload
Mass 575.00 kg
Dry Mass 530.00 kg
Total Mass 575.00 kg
Length 0.30 m
Diameter 4.10 m
Span 29.00 m
Shape Box + pan
Manufacturer SPXS
Bus Type Starlink V2MO
Phase Status In Orbit
Owner/State SPXS/US

Most Searched